Regional Weather Roundup
Issued by NWS

Home | Current Version | Previous Version | Graphics & Text | Print | Product List | Glossary On
Versions: 1 2 3 4 5 6 7 8 9 10 11 12 13 14 15 16 17 18 19 20 21 22 23 24 25 26 27 28 29 30 31 32 33 34 35 36 37 38 39 40 41 42 43 44 45 46 47 48 49 50
000
ASUS43 KFSD 280810
RWRSD

WEATHER ROUNDUP FOR SOUTH DAKOTA
NATIONAL WEATHER SERVICE SIOUX FALLS SD
300 AM CDT TUE MAR 28 2017

NOTE: "FAIR" INDICATES FEW OR NO CLOUDS BELOW 12,000 FEET WITH NO
SIGNIFICANT WEATHER AND/OR OBSTRUCTIONS TO VISIBILITY.


SDZ001>005-009-010-012>017-280900-
NORTHWEST AND NORTH CENTRAL SOUTH DAKOTA

CITY           SKY/WX    TMP DP  RH WIND       PRES   REMARKS
BUFFALO          N/A     40  33  76 S5        29.91R
FAITH            N/A     41  33  73 MISG      29.98R
MOBRIDGE       CLEAR     40  31  70 E8        29.98F
$$

SDZ012>016-024>037-041>051-057-063-072>074-280900-
SOUTHWEST AND SOUTH CENTRAL SOUTH DAKOTA

CITY           SKY/WX    TMP DP  RH WIND       PRES   REMARKS
RAPID CTY ARPT CLOUDY    39  33  79 N9        29.94F
PIERRE         CLOUDY    37  32  82 E8        29.99R
CUSTER         CLOUDY    38  32  79 NE6       29.94S
ELLSWORTH AFB  CLOUDY    44  33  64 CALM      29.93F
PHILIP         CLOUDY    41  34  76 E9        29.95F
PINE RIDGE     CLOUDY    44  40  85 SE6       29.91R
SPEARFISH      FAIR      41  36  81 E9        29.94F
WINNER         CLOUDY    47  39  74 SE9       29.99R
$$

SDZ004>011-016>023-039-040-280900-
NORTHEAST SOUTH DAKOTA

CITY           SKY/WX    TMP DP  RH WIND       PRES   REMARKS
ABERDEEN       CLEAR     32  32 100 N8        30.05R WCI  25
WATERTOWN      CLOUDY    39  35  86 CALM      30.05R
BROOKINGS      CLOUDY    40  35  83 E5        30.05R
SISSETON         N/A     33  30  88 NW3       30.05F
$$

SDZ017-020-022-023-036>040-048>070-280900-
SOUTHEAST SOUTH DAKOTA

CITY           SKY/WX    TMP DP  RH WIND       PRES   REMARKS
SIOUX FALLS    CLEAR     34  33  96 CALM      30.06R
HURON          CLOUDY    39  36  89 SE8       30.04R
CHAMBERLAIN    CLOUDY    48  41  79 E6        30.00S
MITCHELL       CLEAR     37  36  96 SE6       30.04F
YANKTON        CLOUDY    43  37  81 SE7       30.05R
$$

ABBREVIATIONS USED IN REMARKS
   TC - TEMPERATURE IN CELSIUS
  WCI - WIND CHILL INDEX
   HX - HEAT INDEX
  VSB - VISIBILITY




USA.gov is the U.S. government's official web portal to all federal, state and local government web resources and services.